Wind_Speed
12 12 13 13 13 13 14 14 14 14 12 11 9 8 7 7 7 8 8 8 8 8 9 9 9 9 8 7 6 6 6 6 6 6 6 6 7 7 7 8 9 9 9 9 9 9 9 9 9
12 13 13 14 14 14 16 16 16 16 15 13 11 10 9 9 9 10 10 10 10 11 11 11 11 10 10 9 8 8 8 8 7 7 8 8 8 8 9 9 10 10 10 10 10 10 10 10 9
14 14 14 14 15 16 17 17 18 17 16 13 12 11 11 11 12 13 12 12 12 12 13 13 13 12 11 11 10 10 10 10 9 10 9 9 10 10 11 11 11 11 11 11 10 10 10 10 10
15 15 15 16 17 18 19 19 18 18 17 14 12 12 11 12 13 14 14 14 14 14 14 15 14 13 12 12 11 11 11 11 11 11 11 12 12 12 12 12 12 12 12 12 12 11 11 11 11
16 16 16 17 19 20 20 20 20 20 17 15 14 13 14 14 14 15 16 16 15 15 15 16 15 14 13 12 12 12 12 13 13 13 13 13 13 13 13 13 13 14 14 13 13 12 12 12 12
17 17 17 18 20 21 22 22 22 21 19 17 15 14 14 14 15 16 17 17 16 16 16 16 15 15 14 14 14 14 14 14 14 14 14 14 14 15 15 14 15 15 15 15 15 14 14 14 14
18 18 19 20 22 23 24 23 22 21 20 18 17 15 15 16 16 17 17 17 17 17 17 18 17 17 16 15 15 15 15 15 15 15 15 15 15 15 15 15 16 16 16 16 17 16 16 15 15
19 19 21 22 24 25 26 24 23 22 20 18 17 16 15 16 17 18 16 16 18 18 17 18 17 18 17 16 16 17 17 17 16 16 16 16 16 16 16 17 17 17 17 17 18 18 18 17 16
19 20 22 23 25 26 26 25 23 21 19 18 17 16 16 17 19 18 16 15 17 17 17 16 16 17 18 17 17 17 18 18 17 17 17 17 17 18 18 18 17 17 17 18 18 19 18 18 18
20 21 23 25 26 27 26 25 23 22 20 18 17 16 17 18 18 19 18 17 17 17 16 14 14 16 17 17 17 17 17 18 18 18 18 18 18 19 19 18 18 18 18 18 18 19 19 19 19
21 23 25 26 26 26 25 25 24 22 20 19 18 17 17 18 18 18 18 17 17 17 16 14 14 15 17 17 17 18 18 19 19 18 18 18 19 19 19 19 20 20 20 20 20 20 20 20 19
23 24 25 25 26 26 25 24 24 22 20 19 18 18 17 18 18 19 19 18 17 16 15 14 16 17 18 18 18 17 17 18 19 20 20 19 19 21 21 21 21 22 22 22 22 21 21 20 19
23 25 25 25 26 25 24 23 23 22 21 19 18 18 18 18 18 19 19 18 17 17 15 15 16 17 18 18 18 17 17 17 19 20 20 21 21 21 22 23 24 23 23 23 23 23 22 22 21
23 24 24 23 24 24 24 23 22 21 20 19 19 18 18 18 17 18 18 17 17 17 16 16 17 17 18 19 19 17 18 18 19 20 21 22 23 23 23 22 23 24 24 24 24 24 24 24 24
23 24 23 23 23 24 23 22 22 21 20 19 19 17 17 16 15 16 16 16 16 15 16 16 17 17 17 18 18 16 17 18 19 21 21 22 22 22 23 23 24 25 24 25 25 24 24 25 25
21 22 23 23 23 23 22 22 22 21 20 19 19 17 16 15 15 16 16 15 15 15 15 15 16 16 15 17 18 18 17 18 20 20 20 21 21 22 23 23 24 25 25 25 25 25 25 26 25
19 20 22 22 22 22 22 21 21 20 19 18 17 17 16 16 15 16 16 15 14 15 14 14 15 16 17 17 17 18 18 18 18 19 19 20 21 21 22 23 24 25 25 25 25 26 26 27 26
18 20 21 21 21 21 21 21 20 19 19 18 18 17 16 15 15 16 16 15 16 16 16 16 17 18 18 19 18 19 20 19 19 19 19 20 21 22 23 24 24 25 25 26 27 27 27 28 28
18 18 19 20 20 20 20 20 19 19 19 19 18 17 16 16 16 17 17 17 18 18 18 17 18 17 18 19 20 20 21 20 21 21 21 21 22 23 25 25 25 26 26 26 27 27 27 27 28
16 16 17 18 18 18 18 18 18 18 18 17 16 16 17 16 17 18 17 18 19 18 18 18 18 19 20 20 21 21 21 21 22 22 23 24 24 24 26 26 27 27 28 27 27 27 28 29 29
15 15 15 15 16 17 17 17 16 16 16 16 15 15 16 17 16 17 17 18 19 19 19 19 19 20 20 20 20 22 23 23 24 24 24 25 26 26 27 27 28 28 28 28 28 28 29 29 29
15 14 14 14 15 15 16 16 15 15 16 16 16 16 17 17 18 18 18 18 19 19 19 20 19 19 20 21 22 23 24 25 26 26 26 27 27 27 28 29 29 29 29 29 29 29 29 29 29
15 14 14 14 14 14 15 15 15 15 15 15 16 17 17 17 19 19 19 19 20 21 21 20 20 20 21 23 24 25 25 26 26 27 27 27 27 27 27 28 28 28 29 29 29 29 29 29 29
14 15 15 14 14 15 14 15 15 15 15 16 17 18 18 18 19 20 20 21 21 22 23 23 22 22 23 24 25 26 27 27 28 28 28 28 28 27 27 28 28 28 29 29 29 29 30 29 29
15 16 16 15 15 15 15 15 15 15 15 16 17 17 17 19 20 20 20 21 22 22 22 23 23 23 24 25 26 27 28 29 30 29 30 29 29 29 29 29 29 29 28 28 29 29 29 29 29
14 15 15 16 16 15 15 15 15 15 14 15 16 17 16 18 20 21 21 22 23 23 23 23 23 24 25 25 26 28 29 30 31 31 30 30 30 30 30 29 30 29 29 29 29 29 29 29 29
11 12 13 14 15 15 15 15 14 14 14 15 16 16 17 17 19 20 22 23 23 23 23 23 24 24 25 26 27 28 28 28 28 29 30 30 29 29 29 28 28 28 29 29 29 29 29 28 29
11 12 12 13 13 14 14 14 13 13 14 15 15 16 17 18 18 20 22 22 22 22 23 23 23 24 25 26 26 26 26 26 26 25 26 26 27 28 28 27 27 28 28 28 28 28 28 28 29
11 12 13 14 14 14 13 13 13 14 14 15 16 16 17 17 18 19 20 21 22 22 21 21 22 23 23 23 24 24 24 24 23 23 23 23 23 24 24 25 26 27 27 27 27 28 28 28 28
12 12 12 13 14 13 14 13 13 14 14 15 15 16 17 18 19 19 20 21 21 20 20 21 21 22 22 22 22 22 22 22 21 21 21 21 21 22 22 23 24 25 25 26 27 27 27 26 26
Wind_Direction
239 237 238 238 238 238 237 239 242 245 246 252 261 271 284 294 305 310 306 303 296 294 292 289 284 279 276 272 271 270 269 266 267 274 279 282 284 291 295 298 298 300 302 305 311 314 315 316 318
239 235 235 236 235 234 234 237 240 243 245 250 256 268 287 297 298 304 302 298 293 290 286 283 281 277 275 271 269 269 268 267 267 271 275 277 278 283 289 291 291 293 292 296 302 306 306 306 308
240 236 235 234 232 233 236 237 241 244 246 250 255 265 282 293 299 300 297 297 295 288 283 281 278 274 274 272 268 267 266 265 266 269 273 275 277 280 283 285 286 288 290 291 294 297 299 299 298
238 235 235 234 230 232 236 239 242 243 246 248 254 262 273 286 296 298 295 293 292 288 283 277 274 270 270 271 269 269 268 266 267 269 272 275 277 279 279 283 285 286 286 288 289 290 292 293 292
234 232 231 230 229 232 237 239 240 242 245 248 255 261 271 283 293 298 297 294 289 285 282 276 269 266 266 266 266 267 268 267 268 269 272 275 275 277 279 282 283 284 284 285 286 286 287 287 287
232 228 226 226 227 231 234 237 238 240 244 248 256 263 272 283 292 295 293 290 289 284 282 277 267 262 266 264 262 263 264 264 266 268 269 271 273 274 277 279 280 281 282 283 282 282 283 283 283
228 225 223 224 226 230 233 236 239 242 246 252 259 269 279 288 293 297 294 290 289 286 281 276 269 265 264 261 259 262 264 264 264 265 266 267 270 272 275 276 277 279 282 283 283 281 281 282 281
225 224 220 220 223 229 234 236 240 244 248 256 263 274 285 291 293 296 294 291 292 288 282 274 268 263 259 257 259 260 261 261 262 263 264 265 267 269 272 273 274 276 279 281 282 282 281 279 279
223 222 218 218 221 228 234 238 241 245 250 257 265 274 285 291 294 292 289 288 289 287 279 268 265 261 255 254 255 256 258 260 261 262 264 265 266 268 270 270 272 275 278 280 281 281 281 279 277
219 217 216 219 223 228 234 238 243 246 252 257 265 275 282 288 291 290 292 291 289 287 279 270 271 263 256 253 252 253 255 257 260 262 264 266 267 268 268 268 270 272 274 279 282 281 279 277 275
216 216 218 220 224 229 235 240 244 248 254 263 270 278 285 286 290 291 292 289 287 284 277 273 268 267 257 253 256 256 254 256 259 259 260 264 267 269 269 269 270 271 273 275 277 280 279 276 275
215 218 222 224 227 231 236 241 246 250 258 263 270 278 288 289 287 290 294 291 288 287 282 274 266 265 262 258 257 258 257 259 259 259 260 263 268 270 269 269 269 270 271 272 273 276 276 275 274
216 219 222 225 229 232 237 242 248 253 257 263 271 280 287 285 285 288 292 295 293 289 285 276 269 265 262 260 261 258 256 259 261 260 262 264 267 269 268 268 269 270 270 272 273 274 272 272 273
219 221 224 227 231 234 237 242 248 254 260 265 272 279 282 286 287 288 290 293 291 288 285 276 274 269 263 265 262 258 257 259 262 261 262 265 266 267 268 268 269 270 271 272 274 273 269 271 272
222 223 227 229 233 236 239 243 250 256 262 267 272 274 277 283 287 286 285 286 287 287 288 284 279 274 264 261 261 264 265 262 264 262 262 264 267 268 268 269 269 270 271 271 272 271 270 271 272
223 225 228 231 234 238 241 246 252 258 262 265 269 273 277 281 284 285 284 284 283 285 288 288 281 271 264 263 261 266 269 265 265 267 267 269 271 271 269 269 269 268 268 269 269 269 270 270 272
225 226 230 233 236 240 243 248 251 256 259 262 268 274 276 279 283 285 284 285 283 286 285 283 280 273 269 267 264 263 267 269 272 272 273 273 273 274 272 270 268 267 267 267 266 268 267 267 268
226 228 230 233 238 242 246 249 251 254 256 260 263 267 273 278 279 281 282 286 286 287 288 283 289 279 270 272 271 270 272 275 275 275 275 275 275 274 272 271 270 268 267 268 267 268 267 267 267
225 227 230 234 239 242 245 248 250 254 259 261 263 268 273 278 278 281 283 285 288 290 291 284 286 282 275 275 275 275 276 276 276 276 275 274 274 274 272 271 270 269 268 268 269 269 267 267 266
224 227 230 235 240 241 244 248 252 254 259 263 266 266 271 280 283 282 284 287 289 289 290 288 283 282 278 277 276 277 276 277 277 275 273 273 273 273 272 271 269 269 269 267 267 267 267 267 266
224 225 230 235 242 244 248 252 257 259 261 267 269 271 275 278 284 284 285 290 288 288 288 287 285 282 278 277 276 277 279 279 277 276 274 274 273 273 273 272 270 269 269 269 268 268 268 267 266
222 222 225 233 241 247 253 257 261 263 266 268 271 274 278 279 281 284 286 291 289 287 287 285 284 282 279 278 279 279 280 278 278 277 276 276 275 273 272 272 271 271 270 270 270 270 270 268 266
225 227 229 237 247 255 256 259 264 270 274 276 276 275 277 279 281 284 285 287 286 284 285 283 282 283 282 281 280 281 281 281 278 277 277 277 275 274 273 273 273 272 271 270 271 270 270 267 267
236 239 241 248 256 261 266 267 270 271 274 277 280 276 276 278 283 285 286 284 284 286 287 285 283 282 284 284 283 283 282 281 280 278 277 276 275 274 274 274 273 273 271 270 271 270 270 268 267
243 247 250 255 258 265 270 274 275 275 275 279 284 280 277 279 283 285 286 286 287 288 288 288 283 284 285 285 285 284 283 282 280 278 276 274 275 275 275 274 274 274 272 271 271 270 269 268 267
246 250 256 260 264 267 267 273 277 278 278 279 282 283 280 279 282 284 285 287 288 289 289 289 285 286 288 288 286 286 285 283 283 280 277 276 275 275 274 274 273 273 272 271 270 269 269 267 266
249 252 259 265 268 267 269 272 274 277 280 279 279 282 283 284 285 287 289 289 290 291 291 288 288 290 291 290 289 288 287 285 284 281 277 276 276 275 276 273 273 273 273 271 270 269 269 267 266
260 261 263 266 270 273 273 274 277 281 281 282 282 283 285 287 289 291 292 292 293 292 290 290 292 293 294 294 293 292 291 289 286 283 280 278 277 277 278 275 274 273 273 273 271 270 268 266 265
266 268 271 272 274 278 280 280 282 283 289 290 288 286 287 287 290 293 294 295 296 296 295 295 297 298 298 297 296 296 295 292 290 287 285 283 282 280 280 278 277 275 274 273 272 270 268 267 266
268 270 272 275 276 277 281 284 286 288 289 292 292 290 289 289 291 291 294 296 297 297 297 298 300 300 300 299 297 298 297 294 292 291 290 288 286 285 284 282 280 278 277 275 273 271 269 268 267
Height
5878 5879 5881 5883 5884 5885 5885 5885 5886 5887 5888 5889 5891 5892 5893 5894 5895 5898 5896 5895 5896 5896 5896 5897 5897 5897 5897 5897 5898 5898 5899 5900 5901 5901 5902 5902 5903 5903 5903 5904 5904 5904 5904 5904 5904 5904 5904 5904 5904
5876 5878 5880 5881 5882 5882 5883 5883 5883 5885 5886 5888 5889 5890 5891 5891 5892 5893 5893 5893 5894 5894 5895 5895 5896 5896 5896 5896 5896 5897 5898 5898 5899 5900 5900 5901 5902 5902 5902 5902 5903 5903 5903 5903 5903 5903 5903 5903 5903
5874 5876 5878 5879 5879 5880 5881 5881 5882 5883 5885 5886 5887 5888 5889 5889 5890 5891 5891 5891 5892 5892 5893 5893 5894 5894 5894 5894 5895 5895 5896 5896 5897 5898 5898 5899 5900 5900 5900 5900 5901 5901 5901 5901 5901 5901 5901 5901 5901
5872 5874 5876 5877 5877 5878 5878 5879 5880 5881 5883 5885 5886 5887 5887 5888 5889 5889 5889 5889 5890 5890 5891 5891 5892 5892 5892 5893 5893 5893 5894 5894 5895 5896 5896 5897 5897 5898 5898 5898 5899 5899 5899 5899 5899 5900 5900 5900 5900
5869 5871 5873 5874 5874 5875 5876 5877 5878 5880 5882 5884 5885 5885 5886 5886 5887 5887 5887 5887 5887 5888 5888 5889 5889 5890 5890 5890 5891 5891 5892 5892 5893 5894 5894 5895 5895 5896 5896 5896 5896 5897 5897 5897 5897 5897 5898 5898 5898
5867 5869 5870 5871 5872 5873 5874 5875 5876 5878 5880 5882 5884 5884 5884 5885 5885 5885 5884 5885 5885 5885 5886 5886 5887 5887 5887 5888 5889 5889 5890 5890 5891 5891 5892 5892 5893 5893 5893 5894 5894 5894 5894 5895 5895 5895 5895 5895 5896
5865 5866 5867 5868 5869 5870 5871 5873 5874 5876 5878 5880 5881 5882 5882 5883 5883 5883 5882 5882 5882 5882 5883 5883 5884 5884 5884 5885 5886 5887 5887 5887 5888 5889 5889 5890 5890 5891 5891 5891 5891 5891 5892 5892 5892 5892 5892 5893 5893
5861 5863 5864 5865 5867 5868 5869 5871 5872 5874 5876 5878 5879 5880 5880 5880 5880 5880 5879 5879 5879 5879 5879 5880 5880 5880 5881 5882 5883 5884 5884 5885 5885 5886 5886 5887 5887 5888 5888 5888 5889 5889 5889 5889 5889 5889 5889 5890 5890
5858 5861 5861 5862 5864 5865 5866 5868 5870 5872 5874 5876 5876 5877 5878 5877 5877 5877 5876 5875 5875 5875 5876 5876 5876 5877 5878 5878 5879 5880 5881 5882 5882 5882 5883 5884 5884 5884 5885 5885 5885 5886 5886 5886 5886 5886 5886 5887 5887
5855 5856 5858 5859 5861 5862 5864 5866 5868 5870 5872 5873 5874 5874 5874 5874 5874 5873 5873 5872 5872 5872 5872 5872 5873 5873 5874 5874 5875 5876 5877 5878 5879 5879 5880 5880 5881 5881 5881 5882 5882 5882 5882 5882 5882 5882 5882 5883 5883
5851 5853 5854 5856 5858 5860 5862 5863 5865 5867 5869 5870 5871 5871 5871 5871 5871 5870 5870 5869 5868 5868 5868 5869 5869 5870 5870 5871 5871 5872 5873 5874 5875 5875 5876 5877 5877 5878 5878 5878 5878 5878 5878 5879 5879 5879 5878 5879 5879
5848 5850 5852 5854 5856 5858 5859 5861 5863 5865 5866 5867 5868 5868 5868 5868 5867 5867 5867 5866 5866 5865 5865 5865 5865 5866 5867 5868 5868 5869 5869 5870 5871 5871 5872 5873 5873 5873 5873 5874 5874 5874 5875 5875 5875 5874 5874 5875 5875
5845 5847 5849 5851 5853 5855 5857 5859 5861 5862 5863 5864 5864 5865 5865 5865 5864 5864 5864 5864 5863 5862 5862 5862 5862 5863 5863 5864 5865 5865 5865 5866 5867 5867 5868 5868 5868 5868 5868 5869 5869 5869 5870 5870 5870 5870 5870 5870 5871
5843 5845 5847 5849 5851 5853 5855 5857 5859 5859 5861 5861 5862 5862 5862 5861 5861 5861 5860 5860 5860 5860 5858 5859 5859 5859 5859 5861 5861 5861 5861 5862 5863 5863 5863 5863 5863 5863 5864 5864 5864 5864 5865 5865 5865 5865 5865 5865 5866
5841 5844 5846 5847 5849 5851 5853 5855 5856 5857 5858 5858 5859 5859 5859 5859 5858 5858 5857 5857 5857 5857 5856 5855 5855 5855 5855 5856 5857 5857 5857 5857 5858 5858 5858 5858 5858 5858 5858 5858 5858 5859 5859 5859 5860 5860 5860 5860 5860
5839 5842 5844 5845 5847 5848 5852 5852 5853 5854 5855 5855 5856 5856 5856 5856 5856 5855 5854 5854 5854 5853 5853 5852 5852 5852 5852 5852 5853 5853 5853 5853 5854 5853 5853 5853 5853 5852 5852 5852 5853 5853 5853 5854 5854 5854 5854 5854 5854
5837 5839 5841 5843 5844 5845 5848 5849 5850 5851 5851 5852 5853 5853 5853 5853 5852 5851 5851 5850 5850 5850 5849 5849 5849 5848 5848 5848 5848 5849 5849 5849 5849 5849 5848 5847 5847 5847 5847 5847 5847 5847 5847 5847 5848 5848 5848 5848 5848
5835 5836 5838 5840 5841 5843 5844 5846 5847 5847 5848 5849 5850 5850 5850 5850 5849 5848 5848 5847 5847 5847 5846 5846 5845 5844 5844 5844 5844 5844 5844 5844 5844 5843 5843 5842 5842 5842 5841 5841 5841 5841 5841 5841 5841 5841 5841 5841 5842
5832 5834 5836 5838 5839 5840 5842 5843 5843 5844 5845 5846 5846 5847 5846 5846 5846 5845 5844 5844 5842 5842 5842 5842 5841 5840 5840 5839 5839 5839 5839 5839 5839 5838 5838 5837 5836 5836 5835 5834 5834 5834 5834 5834 5835 5834 5834 5835 5835
5831 5833 5834 5836 5837 5838 5839 5840 5840 5841 5842 5843 5843 5843 5842 5842 5842 5841 5841 5840 5839 5838 5838 5837 5836 5835 5835 5834 5833 5833 5833 5833 5833 5832 5831 5831 5830 5829 5828 5828 5828 5827 5827 5827 5827 5827 5827 5827 5827
5829 5831 5833 5834 5834 5835 5837 5838 5838 5838 5838 5839 5839 5839 5839 5839 5838 5838 5838 5837 5836 5835 5834 5832 5831 5830 5829 5829 5828 5828 5827 5827 5827 5826 5825 5824 5823 5822 5821 5821 5820 5820 5820 5819 5819 5819 5819 5820 5820
5828 5829 5831 5831 5832 5833 5834 5835 5835 5835 5836 5836 5836 5836 5835 5835 5835 5834 5834 5833 5832 5831 5830 5828 5827 5826 5825 5824 5823 5822 5821 5821 5820 5819 5818 5816 5815 5815 5814 5813 5813 5812 5812 5811 5811 5812 5812 5812 5812
5826 5827 5829 5829 5830 5831 5831 5832 5833 5832 5832 5833 5833 5832 5832 5831 5831 5830 5829 5829 5828 5827 5825 5824 5822 5821 5820 5818 5817 5816 5815 5814 5813 5812 5810 5809 5808 5807 5806 5805 5804 5804 5804 5803 5803 5803 5804 5804 5804
5825 5826 5827 5827 5828 5828 5828 5829 5830 5829 5830 5829 5829 5828 5828 5828 5827 5826 5825 5824 5823 5822 5820 5819 5817 5816 5814 5813 5811 5809 5808 5807 5805 5804 5802 5801 5800 5799 5798 5797 5796 5796 5796 5795 5795 5795 5795 5796 5796
5823 5824 5825 5825 5825 5826 5826 5826 5827 5826 5826 5825 5825 5824 5824 5823 5822 5821 5820 5819 5817 5816 5814 5812 5811 5810 5808 5806 5804 5803 5801 5799 5797 5796 5794 5793 5792 5791 5790 5789 5788 5788 5788 5787 5787 5787 5787 5787 5788
5820 5822 5823 5823 5823 5823 5823 5822 5824 5823 5822 5822 5821 5820 5819 5819 5818 5817 5816 5814 5812 5810 5809 5807 5805 5803 5801 5799 5797 5795 5793 5791 5788 5786 5785 5784 5783 5783 5782 5781 5780 5780 5779 5779 5779 5779 5779 5779 5779
5818 5819 5820 5821 5820 5820 5820 5820 5820 5819 5819 5818 5817 5816 5816 5815 5813 5812 5811 5809 5807 5805 5803 5801 5799 5796 5794 5792 5790 5787 5784 5782 5780 5777 5776 5775 5774 5774 5773 5772 5771 5771 5771 5770 5770 5770 5770 5770 5771
5816 5816 5817 5817 5817 5817 5817 5816 5817 5816 5815 5815 5814 5813 5812 5810 5809 5807 5805 5803 5801 5799 5797 5795 5792 5790 5787 5785 5782 5779 5777 5775 5772 5770 5769 5767 5766 5765 5764 5763 5763 5763 5762 5762 5762 5762 5762 5762 5763
5813 5814 5814 5814 5814 5814 5813 5816 5813 5813 5812 5811 5809 5808 5807 5806 5804 5802 5800 5797 5795 5793 5790 5788 5786 5783 5780 5778 5775 5773 5770 5767 5766 5764 5762 5760 5759 5758 5757 5756 5755 5755 5754 5754 5754 5754 5754 5754 5755
5810 5810 5811 5811 5811 5810 5810 5813 5810 5809 5808 5807 5805 5804 5802 5800 5799 5797 5795 5792 5790 5787 5785 5782 5780 5777 5775 5772 5769 5767 5764 5762 5760 5758 5756 5754 5753 5751 5750 5749 5748 5747 5747 5746 5746 5746 5746 5746 5747